Weather History for KM40 - July, 2013

Change the Weather History Date:

Tuesday, July 16, 2013

  Actual Average (KTUP) Record (KTUP)
Temperature  
Mean Temperature 82 °F 82 °F  
Max Temperature 93 °F 92 °F 105 °F (1980)
Min Temperature 71 °F 71 °F 57 °F (1967)
Degree Days  
Heating Degree Days 0 0  
Month to date heating degree days 0  
Since 1 June heating degree days 0  
Since 1 July heating degree days 0  
Cooling Degree Days 17 17  
Month to date cooling degree days 261  
Year to date cooling degree days 933  
Since 1 June cooling degree days 656  
Growing Degree Days 32 (Base 50)    
Moisture  
Dew Point 64 °F    
Average Humidity 56    
Maximum Humidity 59    
Minimum Humidity 53    
Precipitation  
Precipitation 0.00 in 0.12 in 2.70 in (2010)
Month to date precipitation 2.12  
Year to date precipitation 31.24  
Snow  
Snow 0.00 in 0.00 in - ()
Month to date snowfall 0.0  
Since 1 June snowfall 0.0  
Since 1 July snowfall 0.0  
Snow Depth -    
Sea Level Pressure  
Sea Level Pressure 30.24 in    
Wind  
Wind Speed 3 mph (East)    
Max Wind Speed 9 mph    
Max Gust Speed -    
Visibility 8 miles    
Events      
T = Trace of Precipitation, MM = Missing Value Source: NWS Daily Summary

Daily Weather History Graph

Daily Weather History Graph

Search for Another Location

Airport or City:

Trip Planner

Search our weather history database for the weather conditions in past years. The results will help you decide how hot, cold, wet, or windy it might be!

Date:

Astronomy

Jul. 16, 2013 Rise Set
Actual Time 5:54 AM CDT 8:04 PM CDT
Civil Twilight 5:26 AM CDT 8:33 PM CDT
Nautical Twilight 4:51 AM CDT 9:07 PM CDT
Astronomical Twilight 4:14 AM CDT 9:45 PM CDT
Moon 1:52 PM CDT (7/16) 12:16 AM CDT (7/16)
Length of Visible Light 15h 06m
Length of Day
14h 10m
First Quarter, 56% of the Moon is Illuminated
Jul 16
First Quarter
Jul 22
Full
Jul 29
Last Quarter
Aug 6
New
Aug 14
First Quarter

Hourly Weather History & Observations

Time (CDT) Temp. Heat Index Dew Point Humidity Pressure Visibility Wind Dir Wind Speed Gust Speed Precip Events Conditions
12:15 AM 75.2 °F - 57.2 °F 53% 30.21 in 10.0 mi Calm Calm - N/A   Clear
12:35 AM 75.2 °F - 57.2 °F 53% 30.22 in 10.0 mi East 4.6 mph - N/A   Clear
12:55 AM 75.2 °F - 57.2 °F 53% 30.22 in 10.0 mi East 6.9 mph - N/A   Clear
1:15 AM 75.2 °F - 57.2 °F 53% 30.21 in 10.0 mi East 4.6 mph - N/A   Clear
1:35 AM 75.2 °F - 57.2 °F 53% 30.21 in 10.0 mi East 3.5 mph - N/A   Clear
1:55 AM 73.4 °F - 57.2 °F 57% 30.21 in 10.0 mi East 3.5 mph - N/A   Clear
2:15 AM 73.4 °F - 57.2 °F 57% 30.21 in 9.0 mi East 3.5 mph - N/A   Clear
2:35 AM 73.4 °F - 57.2 °F 57% 30.22 in 9.0 mi Calm Calm - N/A   Clear
2:55 AM 73.4 °F - 57.2 °F 57% 30.22 in 9.0 mi ESE 3.5 mph - N/A   Clear
3:15 AM 73.4 °F - 57.2 °F 57% 30.22 in 9.0 mi SE 4.6 mph - N/A   Clear
3:35 AM 73.4 °F - 57.2 °F 57% 30.22 in 10.0 mi Calm Calm - N/A   Clear
3:55 AM 73.4 °F - 55.4 °F 53% 30.22 in 5.0 mi Calm Calm - N/A   Haze
4:15 AM 71.6 °F - 55.4 °F 57% 30.22 in 5.0 mi Calm Calm - N/A   Haze
4:35 AM 71.6 °F - 55.4 °F 57% 30.22 in 7.0 mi Calm Calm - N/A   Clear
4:55 AM 73.4 °F - 55.4 °F 53% 30.22 in 8.0 mi Calm Calm - N/A   Clear
5:15 AM 71.6 °F - 55.4 °F 57% 30.22 in 7.0 mi Calm Calm - N/A   Clear
5:35 AM 73.4 °F - 55.4 °F 53% 30.22 in 8.0 mi Calm Calm - N/A   Clear
5:55 AM 73.4 °F - 55.4 °F 53% 30.23 in 7.0 mi Calm Calm - N/A   Clear
6:15 AM 73.4 °F - 55.4 °F 53% 30.23 in 6.0 mi Calm Calm - N/A   Haze
6:35 AM 73.4 °F - 57.2 °F 57% 30.24 in 6.0 mi Calm Calm - N/A   Haze
6:55 AM 75.2 °F - 57.2 °F 53% 30.24 in 7.0 mi East 5.8 mph - N/A   Clear
7:15 AM 75.2 °F - 59.0 °F 57% 30.25 in 7.0 mi East 3.5 mph - N/A   Clear
7:35 AM 77.0 °F - 60.8 °F 57% 30.25 in 9.0 mi East 5.8 mph - N/A   Clear
7:55 AM 78.8 °F - 60.8 °F 54% 30.26 in 8.0 mi East 4.6 mph - N/A   Clear
8:15 AM 80.6 °F 81.8 °F 62.6 °F 54% 30.27 in 7.0 mi East 4.6 mph - N/A   Clear
8:35 AM 80.6 °F 82.3 °F 64.4 °F 58% 30.27 in 8.0 mi SE 8.1 mph - N/A   Partly Cloudy
8:55 AM 82.4 °F 83.9 °F 64.4 °F 54% 30.27 in 8.0 mi ESE 9.2 mph - N/A   Partly Cloudy
9:15 AM 82.4 °F 84.6 °F 66.2 °F 58% 30.27 in 7.0 mi SSE 8.1 mph - N/A   Scattered Clouds
9:35 AM 84.2 °F 86.6 °F 66.2 °F 55% 30.27 in 9.0 mi ESE 6.9 mph - N/A   Scattered Clouds
9:55 AM 86.0 °F 89.4 °F 68.0 °F 55% 30.28 in 7.0 mi East 8.1 mph - N/A   Partly Cloudy
10:15 AM 84.2 °F 87.3 °F 68.0 °F 58% 30.28 in 9.0 mi SE 8.1 mph - N/A   Scattered Clouds
10:55 AM 84.2 °F 86.6 °F 66.2 °F 55% 30.28 in 9.0 mi SSE 6.9 mph - N/A   Mostly Cloudy
11:15 AM 86.0 °F 89.4 °F 68.0 °F 55% 30.29 in 9.0 mi SE 4.6 mph - N/A   Mostly Cloudy
11:35 AM 89.6 °F 96.2 °F 71.6 °F 55% 30.28 in 8.0 mi East 4.6 mph - N/A   Partly Cloudy
11:55 AM 89.6 °F 98.2 °F 73.4 °F 59% 30.28 in 9.0 mi East 5.8 mph - N/A   Scattered Clouds
12:15 PM 89.6 °F 96.2 °F 71.6 °F 55% 30.28 in 8.0 mi ESE 4.6 mph - N/A   Scattered Clouds
12:35 PM 89.6 °F 96.2 °F 71.6 °F 55% 30.28 in 9.0 mi East 5.8 mph - N/A   Mostly Cloudy
12:55 PM 89.6 °F 96.2 °F 71.6 °F 55% 30.27 in 9.0 mi East 5.8 mph - N/A   Scattered Clouds
1:15 PM 89.6 °F 96.2 °F 71.6 °F 55% 30.27 in 8.0 mi East 6.9 mph - N/A   Scattered Clouds
1:35 PM 91.4 °F 100.1 °F 73.4 °F 55% 30.26 in 8.0 mi ESE 6.9 mph - N/A   Partly Cloudy
1:55 PM 93.2 °F 105.0 °F 75.2 °F 56% 30.25 in 8.0 mi SE 6.9 mph - N/A   Partly Cloudy
2:15 PM 93.2 °F 105.0 °F 75.2 °F 56% 30.25 in 9.0 mi ENE 4.6 mph - N/A   Partly Cloudy
2:35 PM 93.2 °F 105.0 °F 75.2 °F 56% 30.25 in 8.0 mi East 4.6 mph - N/A   Scattered Clouds
3:55 PM 91.4 °F 100.1 °F 73.4 °F 55% 30.23 in 9.0 mi ENE 3.5 mph - N/A   Scattered Clouds
4:15 PM 91.4 °F 100.1 °F 73.4 °F 55% 30.23 in 9.0 mi ENE 5.8 mph - N/A   Partly Cloudy
4:35 PM 91.4 °F 100.1 °F 73.4 °F 55% 30.22 in 9.0 mi ENE 5.8 mph - N/A   Clear
4:55 PM 91.4 °F 100.1 °F 73.4 °F 55% 30.22 in 8.0 mi East 4.6 mph - N/A   Clear
5:15 PM 91.4 °F 100.1 °F 73.4 °F 55% 30.22 in 9.0 mi East 4.6 mph - N/A   Clear
5:35 PM 91.4 °F 100.1 °F 73.4 °F 55% 30.22 in 9.0 mi East 5.8 mph - N/A   Clear
5:55 PM 91.4 °F 100.1 °F 73.4 °F 55% 30.21 in 10.0 mi East 4.6 mph - N/A   Partly Cloudy
6:15 PM 89.6 °F 98.2 °F 73.4 °F 59% 30.22 in 9.0 mi East 4.6 mph - N/A   Clear
6:35 PM 89.6 °F 96.2 °F 71.6 °F 55% 30.21 in 9.0 mi East 4.6 mph - N/A   Clear
6:55 PM 89.6 °F 96.2 °F 71.6 °F 55% 30.21 in 9.0 mi Calm Calm - N/A   Clear
7:15 PM 89.6 °F 96.2 °F 71.6 °F 55% 30.21 in 9.0 mi Calm Calm - N/A   Clear
7:35 PM 87.8 °F 92.6 °F 69.8 °F 55% 30.22 in 8.0 mi Calm Calm - N/A   Clear
7:55 PM 82.4 °F 84.6 °F 66.2 °F 58% 30.22 in 8.0 mi Calm Calm - N/A   Clear
8:15 PM 80.6 °F 81.8 °F 62.6 °F 54% 30.23 in 8.0 mi Calm Calm - N/A   Clear
8:35 PM 78.8 °F - 62.6 °F 57% 30.23 in 8.0 mi Calm Calm - N/A   Clear
8:55 PM 78.8 °F - 60.8 °F 54% 30.24 in 7.0 mi Calm Calm - N/A   Clear
9:15 PM 77.0 °F - 60.8 °F 57% 30.24 in 6.0 mi Calm Calm - N/A   Haze
9:35 PM 77.0 °F - 60.8 °F 57% 30.25 in 5.0 mi Calm Calm - N/A   Haze
9:55 PM 75.2 °F - 59.0 °F 57% 30.26 in 4.0 mi Calm Calm - N/A   Haze
10:15 PM 75.2 °F - 59.0 °F 57% 30.26 in 5.0 mi Calm Calm - N/A   Haze
10:35 PM 75.2 °F - 59.0 °F 57% 30.27 in 7.0 mi Calm Calm - N/A   Clear
10:55 PM 75.2 °F - 59.0 °F 57% 30.27 in 7.0 mi Calm Calm - N/A   Clear
11:15 PM 75.2 °F - 57.2 °F 53% 30.27 in 2.5 mi Calm Calm - N/A   Haze
11:35 PM 73.4 °F - 57.2 °F 57% 30.27 in 3.0 mi Calm Calm - N/A   Haze
11:55 PM 73.4 °F - 57.2 °F 57% 30.27 in 4.0 mi Calm Calm - N/A   Haze